When you browse on this site, cookies collect data to enhance your experience and personalize the content and advertising you see.
Visit our Privacy Policy to learn more. By continuing to use the site, you agree to this use of cookies and data.
  • En España
  • Lista de países
  • Para 7 días
  • Temperatura del agua
  • El tiempo en el mapa
  • Informadores
  • user-avatar
    Iniciar sesión

    Tiempo cada hora Verbovo

    Hoy, 4 Junio, Jueves

    Tiempo Temperatura Precipitaciones Viento Presión Humedad
    00:00 +8°C° 0 mm 2 mps 734 mmHg 97%
    01:00 +9°C° 0 mm 1 mps 734 mmHg 97%
    02:00 +8°C° 0 mm 1 mps 734 mmHg 97%
    03:00 +9°C° 0 mm 1 mps 734 mmHg 97%
    04:00 +8°C° 0 mm 0 mps 733 mmHg 96%
    05:00 +9°C° 0 mm 0 mps 733 mmHg 96%
    06:00 +10°C° 0 mm 0 mps 733 mmHg 92%
    07:00 +12°C° 0 mm 0 mps 733 mmHg 88%
    08:00 +13°C° 0 mm 0 mps 733 mmHg 84%
    09:00 +15°C° 0.4 mm 1 mps 733 mmHg 79%
    10:00 +16°C° 0.4 mm 1 mps 732 mmHg 75%
    11:00 +17°C° 0.4 mm 2 mps 732 mmHg 71%
    12:00 +16°C° 0.9 mm 3 mps 732 mmHg 75%
    13:00 +15°C° 0.9 mm 4 mps 733 mmHg 78%
    14:00 +14°C° 0.9 mm 5 mps 733 mmHg 82%
    15:00 +14°C° 0.3 mm 4 mps 732 mmHg 82%
    16:00 +14°C° 0.3 mm 4 mps 732 mmHg 82%
    17:00 +13°C° 0.3 mm 3 mps 732 mmHg 82%
    18:00 +13°C° 0.1 mm 3 mps 732 mmHg 85%
    19:00 +12°C° 0.1 mm 3 mps 732 mmHg 88%
    20:00 +11°C° 0.1 mm 3 mps 733 mmHg 91%
    21:00 +10°C° 0 mm 3 mps 733 mmHg 92%
    22:00 +9°C° 0 mm 3 mps 733 mmHg 93%
    23:00 +8°C° 0 mm 3 mps 733 mmHg 94%

    Mañana, 5 Junio, Viernes

    Tiempo Temperatura Precipitaciones Viento Presión Humedad
    00:00 +8°C° 0 mm 3 mps 733 mmHg 94%
    01:00 +8°C° 0 mm 3 mps 733 mmHg 95%
    02:00 +7°C° 0 mm 3 mps 733 mmHg 95%
    03:00 +8°C° 0 mm 3 mps 733 mmHg 95%
    04:00 +8°C° 0 mm 3 mps 733 mmHg 96%
    05:00 +8°C° 0 mm 3 mps 733 mmHg 96%
    06:00 +10°C° 0.1 mm 3 mps 733 mmHg 92%
    07:00 +11°C° 0.1 mm 4 mps 733 mmHg 89%
    08:00 +13°C° 0.1 mm 5 mps 734 mmHg 85%
    09:00 +13°C° 0.2 mm 4 mps 734 mmHg 84%
    10:00 +14°C° 0.2 mm 4 mps 734 mmHg 84%
    11:00 +14°C° 0.2 mm 4 mps 734 mmHg 83%
    12:00 +15°C° 0 mm 4 mps 734 mmHg 79%
    13:00 +17°C° 0 mm 3 mps 734 mmHg 75%
    14:00 +18°C° 0 mm 3 mps 734 mmHg 71%
    15:00 +18°C° 0 mm 3 mps 734 mmHg 70%
    16:00 +18°C° 0 mm 2 mps 734 mmHg 69%
    17:00 +18°C° 0 mm 2 mps 734 mmHg 68%
    18:00 +17°C° 0 mm 2 mps 734 mmHg 74%
    19:00 +15°C° 0 mm 2 mps 735 mmHg 80%
    20:00 +14°C° 0 mm 2 mps 735 mmHg 86%
    21:00 +13°C° 0 mm 2 mps 735 mmHg 88%
    22:00 +13°C° 0 mm 2 mps 735 mmHg 91%
    23:00 +11°C° 0 mm 3 mps 736 mmHg 93%

    Pasado mañana, 6 Junio, Sábado

    Tiempo Temperatura Precipitaciones Viento Presión Humedad
    00:00 +11°C° 0 mm 3 mps 736 mmHg 94%
    01:00 +11°C° 0 mm 3 mps 736 mmHg 95%
    02:00 +12°C° 0 mm 3 mps 736 mmHg 96%
    03:00 +12°C° 0 mm 3 mps 736 mmHg 96%
    04:00 +13°C° 0 mm 4 mps 736 mmHg 95%
    05:00 +14°C° 0 mm 4 mps 736 mmHg 94%
    06:00 +15°C° 0 mm 4 mps 736 mmHg 91%
    07:00 +17°C° 0 mm 5 mps 736 mmHg 87%
    08:00 +19°C° 0 mm 5 mps 737 mmHg 84%
    09:00 +20°C° 0.4 mm 5 mps 737 mmHg 81%
    10:00 +22°C° 0.4 mm 5 mps 737 mmHg 79%
    11:00 +23°C° 0.4 mm 5 mps 737 mmHg 77%
    12:00 +23°C° 0.8 mm 5 mps 737 mmHg 76%
    13:00 +23°C° 0.8 mm 5 mps 737 mmHg 76%
    14:00 +23°C° 0.8 mm 4 mps 738 mmHg 76%
    15:00 +23°C° 0.5 mm 4 mps 738 mmHg 79%
    16:00 +22°C° 0.5 mm 3 mps 738 mmHg 82%
    17:00 +22°C° 0.5 mm 3 mps 738 mmHg 86%
    18:00 +21°C° 0.5 mm 3 mps 738 mmHg 87%
    19:00 +20°C° 0.5 mm 2 mps 738 mmHg 89%
    20:00 +19°C° 0.5 mm 2 mps 738 mmHg 90%
    21:00 +18°C° 0 mm 2 mps 739 mmHg 91%
    22:00 +18°C° 0 mm 2 mps 739 mmHg 92%
    23:00 +17°C° 0 mm 2 mps 739 mmHg 92%

    7 Junio, Domingo

    Tiempo Temperatura Precipitaciones Viento Presión Humedad
    00:00 +18°C° 0.4 mm 1 mps 740 mmHg 93%
    01:00 +18°C° 0.4 mm 1 mps 740 mmHg 94%
    02:00 +18°C° 0.4 mm 1 mps 740 mmHg 95%
    03:00 +18°C° 0.2 mm 1 mps 740 mmHg 96%
    04:00 +18°C° 0.2 mm 1 mps 741 mmHg 96%
    05:00 +18°C° 0.2 mm 1 mps 741 mmHg 97%
    06:00 +19°C° 0 mm 1 mps 741 mmHg 94%
    07:00 +20°C° 0 mm 1 mps 742 mmHg 90%
    08:00 +21°C° 0 mm 1 mps 742 mmHg 87%
    09:00 +22°C° 0.1 mm 1 mps 742 mmHg 82%
    10:00 +23°C° 0.1 mm 1 mps 743 mmHg 77%
    11:00 +24°C° 0.1 mm 1 mps 743 mmHg 72%
    12:00 +25°C° 0 mm 1 mps 743 mmHg 70%
    13:00 +25°C° 0 mm 1 mps 743 mmHg 69%
    14:00 +26°C° 0 mm 1 mps 743 mmHg 67%
    15:00 +25°C° 0.1 mm 1 mps 743 mmHg 69%
    16:00 +25°C° 0.1 mm 1 mps 743 mmHg 70%
    17:00 +25°C° 0.1 mm 1 mps 743 mmHg 72%
    18:00 +24°C° 0.5 mm 2 mps 743 mmHg 78%
    19:00 +23°C° 0.5 mm 2 mps 743 mmHg 84%
    20:00 +20°C° 0.5 mm 2 mps 743 mmHg 90%
    21:00 +19°C° 0.3 mm 2 mps 743 mmHg 91%
    22:00 +19°C° 0.3 mm 2 mps 743 mmHg 92%
    23:00 +18°C° 0.3 mm 2 mps 743 mmHg 94%

    8 Junio, Lunes

    Tiempo Temperatura Precipitaciones Viento Presión Humedad
    00:00 +17°C° 0 mm 2 mps 743 mmHg 94%
    01:00 +17°C° 0 mm 2 mps 743 mmHg 95%
    02:00 +17°C° 0 mm 2 mps 743 mmHg 95%
    03:00 +17°C° 0 mm 3 mps 743 mmHg 96%
    04:00 +17°C° 0 mm 3 mps 743 mmHg 96%
    05:00 +17°C° 0 mm 3 mps 743 mmHg 96%
    06:00 +18°C° 0 mm 3 mps 743 mmHg 92%
    07:00 +20°C° 0 mm 3 mps 743 mmHg 89%
    08:00 +21°C° 0 mm 3 mps 743 mmHg 85%
    09:00 +22°C° 0 mm 4 mps 743 mmHg 80%
    10:00 +25°C° 0 mm 4 mps 743 mmHg 76%
    11:00 +26°C° 0 mm 4 mps 743 mmHg 71%
    12:00 +26°C° 0.3 mm 4 mps 743 mmHg 70%
    13:00 +26°C° 0.3 mm 4 mps 743 mmHg 69%
    14:00 +27°C° 0.3 mm 4 mps 742 mmHg 68%
    15:00 +27°C° 0.1 mm 4 mps 742 mmHg 70%
    16:00 +26°C° 0.1 mm 3 mps 742 mmHg 73%
    17:00 +26°C° 0.1 mm 3 mps 742 mmHg 76%
    18:00 +25°C° 0.1 mm 3 mps 742 mmHg 80%
    19:00 +22°C° 0.1 mm 3 mps 742 mmHg 84%
    20:00 +21°C° 0.1 mm 3 mps 741 mmHg 87%
    21:00 +20°C° 0 mm 3 mps 742 mmHg 89%
    22:00 +20°C° 0 mm 3 mps 742 mmHg 90%
    23:00 +19°C° 0 mm 4 mps 742 mmHg 92%

    9 Junio, Martes

    Tiempo Temperatura Precipitaciones Viento Presión Humedad
    00:00 +19°C° 0 mm 4 mps 742 mmHg 92%
    01:00 +19°C° 0 mm 4 mps 742 mmHg 92%
    02:00 +19°C° 0 mm 4 mps 742 mmHg 93%
    03:00 +19°C° 0 mm 4 mps 742 mmHg 93%
    04:00 +19°C° 0 mm 4 mps 742 mmHg 92%
    05:00 +19°C° 0 mm 4 mps 742 mmHg 92%
    06:00 +20°C° 0 mm 5 mps 742 mmHg 89%
    07:00 +22°C° 0 mm 5 mps 742 mmHg 85%
    08:00 +23°C° 0 mm 5 mps 742 mmHg 81%
    09:00 +25°C° 0.1 mm 5 mps 742 mmHg 77%
    10:00 +26°C° 0.1 mm 6 mps 742 mmHg 72%
    11:00 +27°C° 0.1 mm 6 mps 742 mmHg 67%
    12:00 +27°C° 0.9 mm 6 mps 742 mmHg 69%
    13:00 +27°C° 0.9 mm 5 mps 742 mmHg 72%
    14:00 +27°C° 0.9 mm 5 mps 742 mmHg 74%
    15:00 +27°C° 0.3 mm 5 mps 742 mmHg 76%
    16:00 +26°C° 0.3 mm 4 mps 742 mmHg 77%
    17:00 +26°C° 0.3 mm 4 mps 742 mmHg 79%
    18:00 +25°C° 0.1 mm 3 mps 742 mmHg 82%
    19:00 +24°C° 0.1 mm 3 mps 742 mmHg 85%
    20:00 +21°C° 0.1 mm 3 mps 742 mmHg 88%
    21:00 +21°C° 0 mm 3 mps 742 mmHg 90%
    22:00 +20°C° 0 mm 3 mps 742 mmHg 91%
    23:00 +19°C° 0 mm 3 mps 742 mmHg 93%
    Mostrar más